Year,Month,Day,Hour,Minute,Value (Times are PST for windspeed in km/hr)
2023,08,29,00,00,0.00
2023,08,29,00,01,0.00
2023,08,29,00,02,0.00
2023,08,29,00,03,0.00
2023,08,29,00,04,0.00
2023,08,29,00,05,0.00
2023,08,29,00,06,0.00
2023,08,29,00,07,0.00
2023,08,29,00,08,0.00
2023,08,29,00,09,0.00
2023,08,29,00,10,0.00
2023,08,29,00,11,0.00
2023,08,29,00,12,0.00
2023,08,29,00,13,0.00
2023,08,29,00,14,0.00
2023,08,29,00,15,0.00
2023,08,29,00,16,0.00
2023,08,29,00,17,0.00
2023,08,29,00,18,0.00
2023,08,29,00,19,0.00
2023,08,29,00,20,0.00
2023,08,29,00,21,0.00
2023,08,29,00,22,0.00
2023,08,29,00,23,0.00
2023,08,29,00,24,0.00
2023,08,29,00,25,0.00
2023,08,29,00,26,2.40
2023,08,29,00,27,4.20
2023,08,29,00,28,4.10
2023,08,29,00,29,4.10
2023,08,29,00,30,4.10
2023,08,29,00,31,3.10
2023,08,29,00,32,1.00
2023,08,29,00,33,0.00
2023,08,29,00,34,0.00
2023,08,29,00,35,0.00
2023,08,29,00,36,0.00
2023,08,29,00,37,0.50
2023,08,29,00,38,3.10
2023,08,29,00,39,1.50
2023,08,29,00,40,0.00
2023,08,29,00,41,0.00
2023,08,29,00,42,2.00
2023,08,29,00,43,3.20
2023,08,29,00,44,1.70
2023,08,29,00,45,1.60
2023,08,29,00,46,0.20
2023,08,29,00,47,0.00
2023,08,29,00,48,0.00
2023,08,29,00,49,3.20
2023,08,29,00,50,4.40
2023,08,29,00,51,4.80
2023,08,29,00,52,4.50
2023,08,29,00,53,2.80
2023,08,29,00,54,1.30
2023,08,29,00,55,0.00
2023,08,29,00,56,4.00
2023,08,29,00,57,3.70
2023,08,29,00,58,2.60
2023,08,29,00,59,1.50
2023,08,29,01,00,0.30
2023,08,29,01,01,0.00
2023,08,29,01,02,0.00
2023,08,29,01,03,0.00
2023,08,29,01,04,0.00
2023,08,29,01,05,1.70
2023,08,29,01,06,2.20
2023,08,29,01,07,0.30
2023,08,29,01,08,0.00
2023,08,29,01,09,0.00
2023,08,29,01,10,0.00
2023,08,29,01,11,1.00
2023,08,29,01,12,3.40
2023,08,29,01,13,0.40
2023,08,29,01,14,0.00
2023,08,29,01,15,1.20
2023,08,29,01,16,5.40
2023,08,29,01,17,1.40
2023,08,29,01,18,0.40
2023,08,29,01,19,2.40
2023,08,29,01,20,3.30
2023,08,29,01,21,2.00
2023,08,29,01,22,0.00
2023,08,29,01,23,0.00
2023,08,29,01,24,0.00
2023,08,29,01,25,0.00
2023,08,29,01,26,0.00
2023,08,29,01,27,0.00
2023,08,29,01,28,0.00
2023,08,29,01,29,0.00
2023,08,29,01,30,0.00
2023,08,29,01,31,0.00
2023,08,29,01,32,0.00
2023,08,29,01,33,0.00
2023,08,29,01,34,0.00
2023,08,29,01,35,0.00
2023,08,29,01,36,0.00
2023,08,29,01,37,0.00
2023,08,29,01,38,0.00
2023,08,29,01,39,0.00
2023,08,29,01,40,0.00
2023,08,29,01,41,0.00
2023,08,29,01,42,0.00
2023,08,29,01,43,0.00
2023,08,29,01,44,0.00
2023,08,29,01,45,0.00
2023,08,29,01,46,0.00
2023,08,29,01,47,0.00
2023,08,29,01,48,0.00
2023,08,29,01,49,1.70
2023,08,29,01,50,4.00
2023,08,29,01,51,3.60
2023,08,29,01,52,4.50
2023,08,29,01,53,5.50
2023,08,29,01,54,7.30
2023,08,29,01,55,7.80
2023,08,29,01,56,8.70
2023,08,29,01,57,7.30
2023,08,29,01,58,6.30
2023,08,29,01,59,6.70
2023,08,29,02,00,4.50
2023,08,29,02,01,6.00
2023,08,29,02,02,6.90
2023,08,29,02,03,7.80
2023,08,29,02,04,7.50
2023,08,29,02,05,8.20
2023,08,29,02,06,7.00
2023,08,29,02,07,6.10
2023,08,29,02,08,6.20
2023,08,29,02,09,7.80
2023,08,29,02,10,7.80
2023,08,29,02,11,8.20
2023,08,29,02,12,7.30
2023,08,29,02,13,7.10
2023,08,29,02,14,6.00
2023,08,29,02,15,4.70
2023,08,29,02,16,0.20
2023,08,29,02,17,0.20
2023,08,29,02,18,2.40
2023,08,29,02,19,1.90
2023,08,29,02,20,1.40
2023,08,29,02,21,0.00
2023,08,29,02,22,0.00
2023,08,29,02,23,0.00
2023,08,29,02,24,0.00
2023,08,29,02,25,2.60
2023,08,29,02,26,5.60
2023,08,29,02,27,5.80
2023,08,29,02,28,7.30
2023,08,29,02,29,6.00
2023,08,29,02,30,3.70
2023,08,29,02,31,4.20
2023,08,29,02,32,4.10
2023,08,29,02,33,4.10
2023,08,29,02,34,3.30
2023,08,29,02,35,4.40
2023,08,29,02,36,4.50
2023,08,29,02,37,3.80
2023,08,29,02,38,6.30
2023,08,29,02,39,7.30
2023,08,29,02,40,7.70
2023,08,29,02,41,9.40
2023,08,29,02,42,10.80
2023,08,29,02,43,10.20
2023,08,29,02,44,8.20
2023,08,29,02,45,7.00
2023,08,29,02,46,7.30
2023,08,29,02,47,9.90
2023,08,29,02,48,11.90
2023,08,29,02,49,15.70
2023,08,29,02,50,15.80
2023,08,29,02,51,17.90
2023,08,29,02,52,19.50
2023,08,29,02,53,20.80
2023,08,29,02,54,20.10
2023,08,29,02,55,14.90
2023,08,29,02,56,14.80
2023,08,29,02,57,13.20
2023,08,29,02,58,13.10
2023,08,29,02,59,11.20
2023,08,29,03,00,12.50
2023,08,29,03,01,10.90
2023,08,29,03,02,9.40
2023,08,29,03,03,3.20
2023,08,29,03,04,6.60
2023,08,29,03,05,7.90
2023,08,29,03,06,13.70
2023,08,29,03,07,7.40
2023,08,29,03,08,4.20
2023,08,29,03,09,7.10
2023,08,29,03,10,6.80
2023,08,29,03,11,7.00
2023,08,29,03,12,6.30
2023,08,29,03,13,9.50
2023,08,29,03,14,14.70
2023,08,29,03,15,19.70
2023,08,29,03,16,22.80
2023,08,29,03,17,22.60
2023,08,29,03,18,22.80
2023,08,29,03,19,18.10
2023,08,29,03,20,16.30
2023,08,29,03,21,13.10
2023,08,29,03,22,11.70
2023,08,29,03,23,22.40
2023,08,29,03,24,24.10
2023,08,29,03,25,22.00
2023,08,29,03,26,22.40
2023,08,29,03,27,18.70
2023,08,29,03,28,18.70
2023,08,29,03,29,19.10
2023,08,29,03,30,22.60
2023,08,29,03,31,20.60
2023,08,29,03,32,23.10
2023,08,29,03,33,22.10
2023,08,29,03,34,17.60
2023,08,29,03,35,13.10
2023,08,29,03,36,25.00
2023,08,29,03,37,32.70
2023,08,29,03,38,36.90
2023,08,29,03,39,31.20
2023,08,29,03,40,30.30
2023,08,29,03,41,26.10
2023,08,29,03,42,21.60
2023,08,29,03,43,20.10
2023,08,29,03,44,20.00
2023,08,29,03,45,19.20
2023,08,29,03,46,16.10
2023,08,29,03,47,15.90
2023,08,29,03,48,13.80
2023,08,29,03,49,12.50
2023,08,29,03,50,9.80
2023,08,29,03,51,5.80
2023,08,29,03,52,1.40
2023,08,29,03,53,4.20
2023,08,29,03,54,5.30
2023,08,29,03,55,2.80
2023,08,29,03,56,1.30
2023,08,29,03,57,3.60
2023,08,29,03,58,5.10
2023,08,29,03,59,3.30
2023,08,29,04,00,4.10
2023,08,29,04,01,4.50
2023,08,29,04,02,4.50
2023,08,29,04,03,4.50
2023,08,29,04,04,3.60
2023,08,29,04,05,3.70
2023,08,29,04,06,2.30
2023,08,29,04,07,0.70
2023,08,29,04,08,1.00
2023,08,29,04,09,4.50
2023,08,29,04,10,9.40
2023,08,29,04,11,11.40
2023,08,29,04,12,9.30
2023,08,29,04,13,6.40
2023,08,29,04,14,3.90
2023,08,29,04,15,1.90
2023,08,29,04,16,0.00
2023,08,29,04,17,0.00
2023,08,29,04,18,0.00
2023,08,29,04,19,1.60
2023,08,29,04,20,7.60
2023,08,29,04,21,8.30
2023,08,29,04,22,9.30
2023,08,29,04,23,10.40
2023,08,29,04,24,13.00
2023,08,29,04,25,15.60
2023,08,29,04,26,16.50
2023,08,29,04,27,16.30
2023,08,29,04,28,15.40
2023,08,29,04,29,15.30
2023,08,29,04,30,13.30
2023,08,29,04,31,14.70
2023,08,29,04,32,12.10
2023,08,29,04,33,8.10
2023,08,29,04,34,6.50
2023,08,29,04,35,10.70
2023,08,29,04,36,15.70
2023,08,29,04,37,16.60
2023,08,29,04,38,14.20
2023,08,29,04,39,13.60
2023,08,29,04,40,14.00
2023,08,29,04,41,14.90
2023,08,29,04,42,9.40
2023,08,29,04,43,9.90
2023,08,29,04,44,11.90
2023,08,29,04,45,7.30
2023,08,29,04,46,3.80
2023,08,29,04,47,1.10
2023,08,29,04,48,3.90
2023,08,29,04,49,4.60
2023,08,29,04,50,5.30
2023,08,29,04,51,4.50
2023,08,29,04,52,2.10
2023,08,29,04,53,2.40
2023,08,29,04,54,1.30
2023,08,29,04,55,0.00
2023,08,29,04,56,0.00
2023,08,29,04,57,0.00
2023,08,29,04,58,0.00
2023,08,29,04,59,0.00
2023,08,29,05,00,0.00
2023,08,29,05,01,0.00
2023,08,29,05,02,0.00
2023,08,29,05,03,0.00
2023,08,29,05,04,0.00
2023,08,29,05,05,0.00
2023,08,29,05,06,0.00
2023,08,29,05,07,0.00
2023,08,29,05,08,0.00
2023,08,29,05,09,0.00
2023,08,29,05,10,0.00
2023,08,29,05,11,0.00
2023,08,29,05,12,0.00
2023,08,29,05,13,0.00
2023,08,29,05,14,0.00
2023,08,29,05,15,0.00
2023,08,29,05,16,0.00
2023,08,29,05,17,0.00
2023,08,29,05,18,0.00
2023,08,29,05,19,0.00
2023,08,29,05,20,4.40
2023,08,29,05,21,4.40
2023,08,29,05,22,3.00
2023,08,29,05,23,0.90
2023,08,29,05,24,0.00
2023,08,29,05,25,0.00
2023,08,29,05,26,0.00
2023,08,29,05,27,0.00
2023,08,29,05,28,0.00
2023,08,29,05,29,0.00
2023,08,29,05,30,0.00
2023,08,29,05,31,3.10
2023,08,29,05,32,8.50
2023,08,29,05,33,8.10
2023,08,29,05,34,6.70
2023,08,29,05,35,6.40
2023,08,29,05,36,6.00
2023,08,29,05,37,5.50
2023,08,29,05,38,4.20
2023,08,29,05,39,1.20
2023,08,29,05,40,0.60
2023,08,29,05,41,0.00
2023,08,29,05,42,2.10
2023,08,29,05,43,2.40
2023,08,29,05,44,2.60
2023,08,29,05,45,0.10
2023,08,29,05,46,0.10
2023,08,29,05,47,2.10
2023,08,29,05,48,2.10
2023,08,29,05,49,0.00
2023,08,29,05,50,0.00
2023,08,29,05,51,0.00
2023,08,29,05,52,0.00
2023,08,29,05,53,0.00
2023,08,29,05,54,0.00
2023,08,29,05,55,0.00
2023,08,29,05,56,0.00
2023,08,29,05,57,0.00
2023,08,29,05,58,0.00
2023,08,29,05,59,0.00
2023,08,29,06,00,0.00
2023,08,29,06,01,0.00
2023,08,29,06,02,2.10
2023,08,29,06,03,6.30
2023,08,29,06,04,5.90
2023,08,29,06,05,5.10
2023,08,29,06,06,4.60
2023,08,29,06,07,5.20
2023,08,29,06,08,6.90
2023,08,29,06,09,5.70
2023,08,29,06,10,7.30
2023,08,29,06,11,6.70
2023,08,29,06,12,11.10
2023,08,29,06,13,8.70
2023,08,29,06,14,8.10
2023,08,29,06,15,6.60
2023,08,29,06,16,7.70
2023,08,29,06,17,4.00
2023,08,29,06,18,2.90
2023,08,29,06,19,1.30
2023,08,29,06,20,1.40
2023,08,29,06,21,6.40
2023,08,29,06,22,7.50
2023,08,29,06,23,4.50
2023,08,29,06,24,4.40
2023,08,29,06,25,6.40
2023,08,29,06,26,5.60
2023,08,29,06,27,4.80
2023,08,29,06,28,2.00
2023,08,29,06,29,0.00
2023,08,29,06,30,0.00
2023,08,29,06,31,0.00
2023,08,29,06,32,1.10
2023,08,29,06,33,0.00
2023,08,29,06,34,1.70
2023,08,29,06,35,3.40
2023,08,29,06,36,1.90
2023,08,29,06,37,2.30
2023,08,29,06,38,0.10
2023,08,29,06,39,6.10
2023,08,29,06,40,6.00
2023,08,29,06,41,4.90
2023,08,29,06,42,5.50
2023,08,29,06,43,6.90
2023,08,29,06,44,8.60
2023,08,29,06,45,11.30
2023,08,29,06,46,14.50
2023,08,29,06,47,22.40
2023,08,29,06,48,26.90
2023,08,29,06,49,24.00
2023,08,29,06,50,26.30
2023,08,29,06,51,23.50
2023,08,29,06,52,23.40
2023,08,29,06,53,20.40
2023,08,29,06,54,18.80
2023,08,29,06,55,15.70
2023,08,29,06,56,12.00
2023,08,29,06,57,12.40
2023,08,29,06,58,10.20
2023,08,29,06,59,11.50
2023,08,29,07,00,10.60
2023,08,29,07,01,11.10
2023,08,29,07,02,13.80
2023,08,29,07,03,15.60
2023,08,29,07,04,15.20
2023,08,29,07,05,15.00
2023,08,29,07,06,15.70
2023,08,29,07,07,15.60
2023,08,29,07,08,13.40
2023,08,29,07,09,11.50
2023,08,29,07,10,13.00
2023,08,29,07,11,8.60
2023,08,29,07,12,4.30
2023,08,29,07,13,0.80
2023,08,29,07,14,5.20
2023,08,29,07,15,4.90
2023,08,29,07,16,6.00
2023,08,29,07,17,7.90
2023,08,29,07,18,8.20
2023,08,29,07,19,5.70
2023,08,29,07,20,6.40
2023,08,29,07,21,6.10
2023,08,29,07,22,5.30
2023,08,29,07,23,10.80
2023,08,29,07,24,9.10
2023,08,29,07,25,11.90
2023,08,29,07,26,14.70
2023,08,29,07,27,16.60
2023,08,29,07,28,15.70
2023,08,29,07,29,10.10
2023,08,29,07,30,15.60
2023,08,29,07,31,15.30
2023,08,29,07,32,15.00
2023,08,29,07,33,13.80
2023,08,29,07,34,13.70
2023,08,29,07,35,15.70
2023,08,29,07,36,15.70
2023,08,29,07,37,13.90
2023,08,29,07,38,13.50
2023,08,29,07,39,9.00
2023,08,29,07,40,7.90
2023,08,29,07,41,5.20
2023,08,29,07,42,7.80
2023,08,29,07,43,4.20
2023,08,29,07,44,6.80
2023,08,29,07,45,5.70
2023,08,29,07,46,6.90
2023,08,29,07,47,3.60
2023,08,29,07,48,3.60
2023,08,29,07,49,4.80
2023,08,29,07,50,0.70
2023,08,29,07,51,1.90
2023,08,29,07,52,1.70
2023,08,29,07,53,4.30
2023,08,29,07,54,3.50
2023,08,29,07,55,3.80
2023,08,29,07,56,6.10
2023,08,29,07,57,6.60
2023,08,29,07,58,7.00
2023,08,29,07,59,8.50
2023,08,29,08,00,11.00
2023,08,29,08,01,12.50
2023,08,29,08,02,15.10
2023,08,29,08,03,14.80
2023,08,29,08,04,13.50
2023,08,29,08,05,12.60
2023,08,29,08,06,11.10
2023,08,29,08,07,9.90
2023,08,29,08,08,9.00
2023,08,29,08,09,6.90
2023,08,29,08,10,6.10
2023,08,29,08,11,6.10
2023,08,29,08,12,8.50
2023,08,29,08,13,9.40
2023,08,29,08,14,10.00
2023,08,29,08,15,10.60
2023,08,29,08,16,12.80
2023,08,29,08,17,14.60
2023,08,29,08,18,13.60
2023,08,29,08,19,11.80
2023,08,29,08,20,11.60
2023,08,29,08,21,13.40
2023,08,29,08,22,12.60
2023,08,29,08,23,7.20
2023,08,29,08,24,5.50
2023,08,29,08,25,3.60
2023,08,29,08,26,5.60
2023,08,29,08,27,6.70
2023,08,29,08,28,6.00
2023,08,29,08,29,3.80
2023,08,29,08,30,5.20
2023,08,29,08,31,4.90
2023,08,29,08,32,5.10
2023,08,29,08,33,3.70
2023,08,29,08,34,2.00
2023,08,29,08,35,0.10
2023,08,29,08,36,0.00
2023,08,29,08,37,0.90
2023,08,29,08,38,2.90
2023,08,29,08,39,0.40
2023,08,29,08,40,0.00
2023,08,29,08,41,0.00
2023,08,29,08,42,0.50
2023,08,29,08,43,1.60
2023,08,29,08,44,0.00
2023,08,29,08,45,0.10
2023,08,29,08,46,0.00
2023,08,29,08,47,0.10
2023,08,29,08,48,1.30
2023,08,29,08,49,1.20
2023,08,29,08,50,1.60
2023,08,29,08,51,0.20
2023,08,29,08,52,0.00
2023,08,29,08,53,0.00
2023,08,29,08,54,0.00
2023,08,29,08,55,0.00
2023,08,29,08,56,0.00
2023,08,29,08,57,0.50
2023,08,29,08,58,4.20
2023,08,29,08,59,4.80
2023,08,29,09,00,4.20
2023,08,29,09,01,3.30
2023,08,29,09,02,2.30
2023,08,29,09,03,1.90
2023,08,29,09,04,2.70
2023,08,29,09,05,2.70
2023,08,29,09,06,3.60
2023,08,29,09,07,4.90
2023,08,29,09,08,3.70
2023,08,29,09,09,2.00
2023,08,29,09,10,1.80
2023,08,29,09,11,3.70
2023,08,29,09,12,4.70
2023,08,29,09,13,4.50
2023,08,29,09,14,5.70
2023,08,29,09,15,5.60
2023,08,29,09,16,4.10
2023,08,29,09,17,0.00
2023,08,29,09,18,2.60
2023,08,29,09,19,6.60
2023,08,29,09,20,4.90
2023,08,29,09,21,6.60
2023,08,29,09,22,7.10
2023,08,29,09,23,7.00
2023,08,29,09,24,8.70
2023,08,29,09,25,10.20
2023,08,29,09,26,7.60
2023,08,29,09,27,7.10
2023,08,29,09,28,3.90
2023,08,29,09,29,5.40
2023,08,29,09,30,11.30
2023,08,29,09,31,10.60
2023,08,29,09,32,10.80
2023,08,29,09,33,9.00
2023,08,29,09,34,7.00
2023,08,29,09,35,7.90
2023,08,29,09,36,10.40
2023,08,29,09,37,10.80
2023,08,29,09,38,10.90
2023,08,29,09,39,7.60
2023,08,29,09,40,7.30
2023,08,29,09,41,7.20
2023,08,29,09,42,5.50
2023,08,29,09,43,5.50
2023,08,29,09,44,6.80
2023,08,29,09,45,4.80
2023,08,29,09,46,5.00
2023,08,29,09,47,3.80
2023,08,29,09,48,0.30
2023,08,29,09,49,0.00
2023,08,29,09,50,0.00
2023,08,29,09,51,0.00
2023,08,29,09,52,0.00
2023,08,29,09,53,0.00
2023,08,29,09,54,1.10
2023,08,29,09,55,0.20
2023,08,29,09,56,0.10
2023,08,29,09,57,0.00
2023,08,29,09,58,0.00
2023,08,29,09,59,0.50
2023,08,29,10,00,0.40
2023,08,29,10,01,0.00
2023,08,29,10,02,0.10
2023,08,29,10,03,0.00
2023,08,29,10,04,0.10
2023,08,29,10,05,2.30
2023,08,29,10,06,1.90
2023,08,29,10,07,0.00
2023,08,29,10,08,0.50
2023,08,29,10,09,6.20
2023,08,29,10,10,8.50
2023,08,29,10,11,8.20
2023,08,29,10,12,5.20
2023,08,29,10,13,2.00
2023,08,29,10,14,0.20
2023,08,29,10,15,0.00
2023,08,29,10,16,0.00
2023,08,29,10,17,0.70
2023,08,29,10,18,1.90
2023,08,29,10,19,2.70
2023,08,29,10,20,4.30
2023,08,29,10,21,5.60
2023,08,29,10,22,6.60
2023,08,29,10,23,7.70
2023,08,29,10,24,9.00
2023,08,29,10,25,9.10
2023,08,29,10,26,6.30
2023,08,29,10,27,8.90
2023,08,29,10,28,8.40
2023,08,29,10,29,8.10
2023,08,29,10,30,8.00
2023,08,29,10,31,7.00
2023,08,29,10,32,6.30
2023,08,29,10,33,5.90
2023,08,29,10,34,5.80
2023,08,29,10,35,5.30
2023,08,29,10,36,5.90
2023,08,29,10,37,6.00
2023,08,29,10,38,5.00
2023,08,29,10,39,6.20
2023,08,29,10,40,6.00
2023,08,29,10,41,3.40
2023,08,29,10,42,1.10
2023,08,29,10,43,0.10
2023,08,29,10,44,0.50
2023,08,29,10,45,0.00
2023,08,29,10,46,0.00
2023,08,29,10,47,0.00
2023,08,29,10,48,0.00
2023,08,29,10,49,0.00
2023,08,29,10,50,0.00
2023,08,29,10,51,0.00
2023,08,29,10,52,0.20
2023,08,29,10,53,2.40
2023,08,29,10,54,3.40
2023,08,29,10,55,5.70
2023,08,29,10,56,5.70
2023,08,29,10,57,5.80
2023,08,29,10,58,5.90
2023,08,29,10,59,7.20
2023,08,29,11,00,9.60
2023,08,29,11,01,7.50
2023,08,29,11,02,7.60
2023,08,29,11,03,7.20
2023,08,29,11,04,4.80
2023,08,29,11,05,4.10
2023,08,29,11,06,0.90
2023,08,29,11,07,0.10
2023,08,29,11,08,2.90
2023,08,29,11,09,2.10
2023,08,29,11,10,4.20
2023,08,29,11,11,5.10
2023,08,29,11,12,6.00
2023,08,29,11,13,3.70
2023,08,29,11,14,1.20
2023,08,29,11,15,0.00
2023,08,29,11,16,0.00
2023,08,29,11,17,0.00
2023,08,29,11,18,0.00
2023,08,29,11,19,0.00
2023,08,29,11,20,0.00
2023,08,29,11,21,2.20
2023,08,29,11,22,3.60
2023,08,29,11,23,1.40
2023,08,29,11,24,0.00
2023,08,29,11,25,0.50
2023,08,29,11,26,1.80
2023,08,29,11,27,1.30
2023,08,29,11,28,2.10
2023,08,29,11,29,4.90
2023,08,29,11,30,5.30
2023,08,29,11,31,5.20
2023,08,29,11,32,3.90
2023,08,29,11,33,1.60
2023,08,29,11,34,0.00
2023,08,29,11,35,0.00
2023,08,29,11,36,0.00
2023,08,29,11,37,0.50
2023,08,29,11,38,0.70
2023,08,29,11,39,0.00
2023,08,29,11,40,0.00
2023,08,29,11,41,0.00
2023,08,29,11,42,0.00
2023,08,29,11,43,0.00
2023,08,29,11,44,0.00
2023,08,29,11,45,2.00
2023,08,29,11,46,5.00
2023,08,29,11,47,7.00
2023,08,29,11,48,7.10
2023,08,29,11,49,8.10
2023,08,29,11,50,10.20
2023,08,29,11,51,11.60
2023,08,29,11,52,15.20
2023,08,29,11,53,13.70
2023,08,29,11,54,11.20
2023,08,29,11,55,9.20
2023,08,29,11,56,8.90
2023,08,29,11,57,8.10
2023,08,29,11,58,7.00
2023,08,29,11,59,7.50
2023,08,29,12,00,7.70
2023,08,29,12,01,9.20
2023,08,29,12,02,7.10
2023,08,29,12,03,4.40
2023,08,29,12,04,5.40
2023,08,29,12,05,6.70
2023,08,29,12,06,5.30
2023,08,29,12,07,5.10
2023,08,29,12,08,5.60
2023,08,29,12,09,7.20
2023,08,29,12,10,7.00
2023,08,29,12,11,5.50
2023,08,29,12,12,4.50
2023,08,29,12,13,3.60
2023,08,29,12,14,2.80
2023,08,29,12,15,2.70
2023,08,29,12,16,4.90
2023,08,29,12,17,10.90
2023,08,29,12,18,12.00
2023,08,29,12,19,10.40
2023,08,29,12,20,8.40
2023,08,29,12,21,9.00
2023,08,29,12,22,8.20
2023,08,29,12,23,7.60
2023,08,29,12,24,6.90
2023,08,29,12,25,6.40
2023,08,29,12,26,5.80
2023,08,29,12,27,4.60
2023,08,29,12,28,2.60
2023,08,29,12,29,1.30
2023,08,29,12,30,0.00
2023,08,29,12,31,0.00
2023,08,29,12,32,1.40
2023,08,29,12,33,1.20
2023,08,29,12,34,0.00
2023,08,29,12,35,0.00
2023,08,29,12,36,0.00
2023,08,29,12,37,0.00
2023,08,29,12,38,0.00
2023,08,29,12,39,3.50
2023,08,29,12,40,5.40
2023,08,29,12,41,5.90
2023,08,29,12,42,6.70
2023,08,29,12,43,7.50
2023,08,29,12,44,8.70
2023,08,29,12,45,8.50
2023,08,29,12,46,9.00
2023,08,29,12,47,8.40
2023,08,29,12,48,6.60
2023,08,29,12,49,7.70
2023,08,29,12,50,7.90
2023,08,29,12,51,4.90
2023,08,29,12,52,3.20
2023,08,29,12,53,1.90
2023,08,29,12,54,2.00
2023,08,29,12,55,0.10
2023,08,29,12,56,0.00
2023,08,29,12,57,0.00
2023,08,29,12,58,0.00
2023,08,29,12,59,0.00
2023,08,29,13,00,0.00
2023,08,29,13,01,0.00
2023,08,29,13,02,0.00
2023,08,29,13,03,0.00
2023,08,29,13,04,1.70
2023,08,29,13,05,4.00
2023,08,29,13,06,4.90
2023,08,29,13,07,5.90
2023,08,29,13,08,6.30
2023,08,29,13,09,5.90
2023,08,29,13,10,5.10
2023,08,29,13,11,6.40
2023,08,29,13,12,7.20
2023,08,29,13,13,6.30
2023,08,29,13,14,5.50
2023,08,29,13,15,3.70
2023,08,29,13,16,4.00
2023,08,29,13,17,4.10
2023,08,29,13,18,5.20
2023,08,29,13,19,5.70
2023,08,29,13,20,7.50
2023,08,29,13,21,7.50
2023,08,29,13,22,8.60
2023,08,29,13,23,9.90
2023,08,29,13,24,11.00
2023,08,29,13,25,9.30
2023,08,29,13,26,8.50
2023,08,29,13,27,8.20
2023,08,29,13,28,6.80
2023,08,29,13,29,4.90
2023,08,29,13,30,5.20
2023,08,29,13,31,4.50
2023,08,29,13,32,4.10
2023,08,29,13,33,3.10
2023,08,29,13,34,4.40
2023,08,29,13,35,5.30
2023,08,29,13,36,4.00
2023,08,29,13,37,2.30
2023,08,29,13,38,2.00
2023,08,29,13,39,0.40
2023,08,29,13,40,0.00
2023,08,29,13,41,0.50
2023,08,29,13,42,2.70
2023,08,29,13,43,3.20
2023,08,29,13,44,2.60
2023,08,29,13,45,3.30
2023,08,29,13,46,3.60
2023,08,29,13,47,3.60
2023,08,29,13,48,4.50
2023,08,29,13,49,5.60
2023,08,29,13,50,4.30
2023,08,29,13,51,6.00
2023,08,29,13,52,5.40
2023,08,29,13,53,5.10
2023,08,29,13,54,4.20
2023,08,29,13,55,5.40
2023,08,29,13,56,4.60
2023,08,29,13,57,4.30
2023,08,29,13,58,2.90
2023,08,29,13,59,2.80
2023,08,29,14,00,2.30
2023,08,29,14,01,1.60
2023,08,29,14,02,0.00
2023,08,29,14,03,0.00
2023,08,29,14,04,0.00
2023,08,29,14,05,0.00
2023,08,29,14,06,0.00
2023,08,29,14,07,0.00
2023,08,29,14,08,0.00
2023,08,29,14,09,0.00
2023,08,29,14,10,0.00
2023,08,29,14,11,0.00
2023,08,29,14,12,0.00
2023,08,29,14,13,0.00
2023,08,29,14,14,0.00
2023,08,29,14,15,0.00
2023,08,29,14,16,0.00
2023,08,29,14,17,0.00
2023,08,29,14,18,0.00
2023,08,29,14,19,0.00
2023,08,29,14,20,0.00
2023,08,29,14,21,0.00
2023,08,29,14,22,0.00
2023,08,29,14,23,0.00
2023,08,29,14,24,0.00
2023,08,29,14,25,0.00
2023,08,29,14,26,0.00
2023,08,29,14,27,0.00
2023,08,29,14,28,0.00
2023,08,29,14,29,0.00
2023,08,29,14,30,0.00
2023,08,29,14,31,0.00
2023,08,29,14,32,0.00
2023,08,29,14,33,0.00
2023,08,29,14,34,0.50
2023,08,29,14,35,2.90
2023,08,29,14,36,3.10
2023,08,29,14,37,3.70
2023,08,29,14,38,2.60
2023,08,29,14,39,0.80
2023,08,29,14,40,0.00
2023,08,29,14,41,0.00
2023,08,29,14,42,0.00
2023,08,29,14,43,0.00
2023,08,29,14,44,0.10
2023,08,29,14,45,0.00
2023,08,29,14,46,0.00
2023,08,29,14,47,0.00
2023,08,29,14,48,0.00
2023,08,29,14,49,0.00
2023,08,29,14,50,0.00
2023,08,29,14,51,0.50
2023,08,29,14,52,2.40
2023,08,29,14,53,3.10
2023,08,29,14,54,3.40
2023,08,29,14,55,3.40
2023,08,29,14,56,3.30
2023,08,29,14,57,3.30
2023,08,29,14,58,3.10
2023,08,29,14,59,3.60
2023,08,29,15,00,5.10
2023,08,29,15,01,5.20
2023,08,29,15,02,4.90
2023,08,29,15,03,3.10
2023,08,29,15,04,3.60
2023,08,29,15,05,3.40
2023,08,29,15,06,2.70
2023,08,29,15,07,3.30
2023,08,29,15,08,2.90
2023,08,29,15,09,2.90
2023,08,29,15,10,3.40
2023,08,29,15,11,4.80
2023,08,29,15,12,4.70
2023,08,29,15,13,6.40
2023,08,29,15,14,5.90
2023,08,29,15,15,5.30
2023,08,29,15,16,4.80
2023,08,29,15,17,3.40
2023,08,29,15,18,3.10
2023,08,29,15,19,2.60
2023,08,29,15,20,2.00
2023,08,29,15,21,1.70
2023,08,29,15,22,0.40
2023,08,29,15,23,0.10
2023,08,29,15,24,0.00
2023,08,29,15,25,0.00
2023,08,29,15,26,0.00
2023,08,29,15,27,0.00
2023,08,29,15,28,0.00
2023,08,29,15,29,0.00
2023,08,29,15,30,0.00
2023,08,29,15,31,0.00
2023,08,29,15,32,0.00
2023,08,29,15,33,0.00
2023,08,29,15,34,0.00
2023,08,29,15,35,0.00
2023,08,29,15,36,0.00
2023,08,29,15,37,0.00
2023,08,29,15,38,0.00
2023,08,29,15,39,0.00
2023,08,29,15,40,1.60
2023,08,29,15,41,0.30
2023,08,29,15,42,0.10
2023,08,29,15,43,0.00
2023,08,29,15,44,0.00
2023,08,29,15,45,0.00
2023,08,29,15,46,0.00
2023,08,29,15,47,0.00
2023,08,29,15,48,0.10
2023,08,29,15,49,0.00
2023,08,29,15,50,0.00
2023,08,29,15,51,0.00
2023,08,29,15,52,0.00
2023,08,29,15,53,0.60
2023,08,29,15,54,0.40
2023,08,29,15,55,0.00
2023,08,29,15,56,0.00
2023,08,29,15,57,0.00
2023,08,29,15,58,0.00
2023,08,29,15,59,0.00
2023,08,29,16,00,0.00
2023,08,29,16,01,0.00
2023,08,29,16,02,0.00
2023,08,29,16,03,0.00
2023,08,29,16,04,0.00
2023,08,29,16,05,0.00
2023,08,29,16,06,0.00
2023,08,29,16,07,0.00
2023,08,29,16,08,0.00
2023,08,29,16,09,0.00
2023,08,29,16,10,0.00
2023,08,29,16,11,0.00
2023,08,29,16,12,0.00
2023,08,29,16,13,0.00
2023,08,29,16,14,0.00
2023,08,29,16,15,0.00
2023,08,29,16,16,0.00
2023,08,29,16,17,0.00
2023,08,29,16,18,0.00
2023,08,29,16,19,3.00
2023,08,29,16,20,5.10
2023,08,29,16,21,5.70
2023,08,29,16,22,7.60
2023,08,29,16,23,8.40
2023,08,29,16,24,7.60
2023,08,29,16,25,9.10
2023,08,29,16,26,10.50
2023,08,29,16,27,11.00
2023,08,29,16,28,9.40
2023,08,29,16,29,9.80
2023,08,29,16,30,11.60
2023,08,29,16,31,11.70
2023,08,29,16,32,10.70
2023,08,29,16,33,11.50
2023,08,29,16,34,10.80
2023,08,29,16,35,9.80
2023,08,29,16,36,8.50
2023,08,29,16,37,8.90
2023,08,29,16,38,7.30
2023,08,29,16,39,6.60
2023,08,29,16,40,6.40
2023,08,29,16,41,6.50
2023,08,29,16,42,4.90
2023,08,29,16,43,4.80
2023,08,29,16,44,4.60
2023,08,29,16,45,5.60
2023,08,29,16,46,6.60
2023,08,29,16,47,7.50
2023,08,29,16,48,7.00
2023,08,29,16,49,7.70
2023,08,29,16,50,6.90
2023,08,29,16,51,7.00
2023,08,29,16,52,4.90
2023,08,29,16,53,4.50
2023,08,29,16,54,3.40
2023,08,29,16,55,0.70
2023,08,29,16,56,0.00
2023,08,29,16,57,0.00
2023,08,29,16,58,0.00
2023,08,29,16,59,0.00
2023,08,29,17,00,0.00
2023,08,29,17,01,0.00
2023,08,29,17,02,0.00
2023,08,29,17,03,0.40
2023,08,29,17,04,4.20
2023,08,29,17,05,4.60
2023,08,29,17,06,3.40
2023,08,29,17,07,3.30
2023,08,29,17,08,4.40
2023,08,29,17,09,4.80
2023,08,29,17,10,3.70
2023,08,29,17,11,4.10
2023,08,29,17,12,4.20
2023,08,29,17,13,4.80
2023,08,29,17,14,4.90
2023,08,29,17,15,5.50
2023,08,29,17,16,4.80
2023,08,29,17,17,3.60
2023,08,29,17,18,2.10
2023,08,29,17,19,0.00
2023,08,29,17,20,0.00
2023,08,29,17,21,0.00
2023,08,29,17,22,0.00
2023,08,29,17,23,0.00
2023,08,29,17,24,0.00
2023,08,29,17,25,0.00
2023,08,29,17,26,0.00
2023,08,29,17,27,0.00
2023,08,29,17,28,0.00
2023,08,29,17,29,0.00
2023,08,29,17,30,0.00
2023,08,29,17,31,0.00
2023,08,29,17,32,0.00
2023,08,29,17,33,0.00
2023,08,29,17,34,0.00
2023,08,29,17,35,0.00
2023,08,29,17,36,0.00
2023,08,29,17,37,0.00
2023,08,29,17,38,0.00
2023,08,29,17,39,0.00
2023,08,29,17,40,0.00
2023,08,29,17,41,0.00
2023,08,29,17,42,0.00
2023,08,29,17,43,0.00
2023,08,29,17,44,0.00
2023,08,29,17,45,0.00
2023,08,29,17,46,0.00
2023,08,29,17,47,2.40
2023,08,29,17,48,3.80
2023,08,29,17,49,4.50
2023,08,29,17,50,4.90
2023,08,29,17,51,4.40
2023,08,29,17,52,4.00
2023,08,29,17,53,4.70
2023,08,29,17,54,3.30
2023,08,29,17,55,3.10
2023,08,29,17,56,3.30
2023,08,29,17,57,2.60
2023,08,29,17,58,1.90
2023,08,29,17,59,1.30